Starlink 30456

operational
NORAD ID: 57943 Int'l Des: 2023-148 Owner: SPXS Country: US Constellation: starlink
LEOCIRCULAR

Starlink 30456について

説明を読み込み中...

リアルタイム位置

3D地球を読み込み中...

次回通過

高度履歴

Altitude vs Time

uPlot chart will show altitude changes over time

軌道要素

1 57943U 23148J 25350.43955634 .00000142 00000-0 16932-4 0 9992
2 57943 53.1610 51.1663 0001200 83.6616 276.4521 15.30197724125678
Epoch: Dec 16, 2025 • Age: 24 hours

現在のステータス

高度 480.6 km
速度 7.63 km/s
衛星直下点 51.78°N, 124.71°W
打ち上げ日 Sep 25, 2023
運用期間 2.2 years
タイプ internet

技術仕様

分類 Payload
質量 730.00 kg
乾燥質量 700.00 kg
総質量 730.00 kg
長さ 0.30 m
直径 4.10 m
スパン 29.00 m
形状 Box + pan
製造者 SPXS
バスタイプ Starlink V2M
フェーズステータス In Orbit
所有者/国 SPXS/US

大規模コンステレーション

Loading constellations...